Location: Cantaing
(50.1487°N, 3.1675°E)
Time: 03:19:08
(UTC+00:00)

Cosmos 1844 Rocket - Pass Details

Date: 14 April 2026
Orbit: 825 x 842 km, 71.0° (Epoch: 11 May)

Event Time Altitude Azimuth Distance (km) Brightness Sun altitude
Rises 19:23:00 0° 318° (NW) 3,377 7.2 -7.3°
Reaches altitude 10° 19:26:20 10° 298° (WNW) 2,436 6.9 -7.8°
Maximum altitude 19:29:37 16° 262° (W) 2,024 5.6 -8.3°
Drops below altitude 10° 19:32:54 10° 225° (SW) 2,423 5.3 -8.7°
Sets 19:36:13 0° 205° (SSW) 3,349 5.8 -9.2°
